User: anonymous   Login
Location: Simi Valley
(34.2690°N, 118.7810°W)
Time: 10:10:53
(UTC-08:00)
Language:

Lacrosse 5 rocket - Orbit

View from above orbital plane
View from above orbital plane
View from above satellite
View from above satellite

Ground track
Ground track

The orbit data is extracted from the following two-line orbital elements,

1 28647U 05016B   17018.76660731 0.00000700  00000-0  40738-4 0    08
2 28647  56.9980 262.1139 0128921  59.9345 300.0654 15.04763898    07
Epoch (UTC): 18 January 2017 18:23:54
Eccentricity: 0.0128921
inclination: 56.9980°
perigee height: 463 km
apogee height: 641 km
right ascension of ascending node: 262.1139°
argument of perigee: 59.9345°
revolutions per day: 15.04763898
mean anomaly at epoch: 300.0654°
orbit number at epoch: 0

The dashed part of the orbit path shows where the satellite is in the earth's shadow,  

DLR